"Pseudo-MPEC" for P10TS5W

Created 2019 Nov 13 10:07:08 UT using Find_Orb

Click here for an explanation of pseudo-MPECs

 
 Astrometry: 
     P10TS5W  C2019 11 01GbmkwSKAstrometryMp#s,k.vMW9Q3.g2xQqfUx3=kQbB*3IU6gNF51
     P10TS5W  C2019 11 01wX6M`mredacted;f7[OXmM09e\aWx)1RK?yyRjL8]mOB-eoq*c6FF51
     P10TS5W  C2019 11 01iLb!Jkq\xB^=u]oecaIVjgxR-HI71`7Tclick2yU7ELsCHhereW:F51
     P10TS5W  C2019 11 01Dn0/WKfor2hTfna4qREWiTDicexplanation546.18?K\g5FDaXfF51
     P10TS5W  C2019 11 02.12575823 48 20.89 -00 13 44.5    ~B23q 21.1 GVNEOCPH01
     P10TS5W  C2019 11 02.13223223 48 17.54 -00 14 32.0    ~B23q 20.7 GVNEOCPH01
     P10TS5W  C2019 11 02.14072423 48 13.12 -00 15 34.5    ~B23q 20.6 GVNEOCPH01
     P10TS5W  C2019 11 02.14981223 48 08.39 -00 16 41.3    ~B23q 20.8 GVNEOCPH01

Station data:
(F51) Pan-STARRS 1, Haleakala  (N20.707235 W156.255910)  US/Hawaii.
   Observers N. Primak, A. Schultz, S. Watters, J. Thiel, T. Goggia. Measurer
   PS1 Science Consortium. 1.8-m Ritchey-Chrétien + CCD.
(H01) Magdalena Ridge Observatory, Socorro  (N33.984833 W107.189333)  US/New
   Mexico.  Observers W. H. Ryan, E. V. Ryan. Measurer W. H. Ryan. 2.4-m
   f/8.9 reflector + CCD.

Orbital elements:  P10TS5W
   Perihelion 2020 Jan 3.280358 +/- 1.39 TT =  6:43:42 (JD 2458851.780358)
Epoch 2019 Nov  2.0 TT = JDT 2458789.5   Earth MOID: 0.0029   Ve: 0.0899
M 323.34690748 +/- 2.9              (J2000 ecliptic)          AutoNEOCP
n   0.58851769 +/- 0.0361           Peri.  272.88881 +/- 2.0
a   1.41025083 +/- 0.0577           Node   215.90172 +/- 0.13
e   0.5101523 +/- 0.0206            Incl.    7.50342 +/- 0.29
P   1.67/611.69d           H 24.6   G  0.15   U 10.5  
q 0.69080803 +/- 0.0101    Q 2.12969363 +/- 0.118
From 8 observations 2019 Nov. 1-2 (18.9 hr); mean residual 0".09
Residuals in arcseconds: 
191101 F51  .01-  .06-    191101 F51  .11+  .12+    191102 H01  .01-  .02-    
191101 F51  .09+  .11+    191102 H01  .06-  .07-    191102 H01  .02-  .08+    
191101 F51  .19-  .17-    191102 H01  .09+  .02+    

Ephemerides (geocentric):
Date (UTC) HH   RA              Dec         delta   r     elong  mag " sig PA
---- -- -- --  -------------   -----------  ------ ------ -----  --- ---- ---
2019 11 13 10  21 17 57.235   -31 59 06.43  .08322 .98130  81.9 22.4 1001  57
2019 11 13 11  21 17 08.716   -32 06 10.45  .08324 .98094  81.6 22.4 1008  57
2019 11 13 12  21 16 20.097   -32 13 13.07  .08327 .98059  81.4 22.5 1014  58
2019 11 13 13  21 15 31.380   -32 20 14.27  .08329 .98023  81.1 22.5 1021  58
2019 11 13 14  21 14 42.565   -32 27 14.04  .08332 .97988  80.9 22.5 1027  58
2019 11 13 15  21 13 53.653   -32 34 12.36  .08335 .97952  80.7 22.5 1034  58
2019 11 13 16  21 13 04.645   -32 41 09.22  .08338 .97917  80.4 22.5 1041  58
2019 11 13 17  21 12 15.541   -32 48 04.60  .08341 .97881  80.2 22.5 1047  58
2019 11 13 18  21 11 26.342   -32 54 58.49  .08344 .97846  80.0 22.5 1054  58
2019 11 13 19  21 10 37.050   -33 01 50.86  .08347 .97810  79.7 22.5 1060  58
2019 11 13 20  21 09 47.664   -33 08 41.71  .08351 .97775  79.5 22.5 1067  58
2019 11 13 21  21 08 58.187   -33 15 31.01  .08354 .97739  79.3 22.5 1073  59
2019 11 13 22  21 08 08.618   -33 22 18.76  .08358 .97704  79.0 22.6 1080  59
2019 11 13 23  21 07 18.959   -33 29 04.93  .08361 .97668  78.8 22.6 1087  59
2019 11 14 00  21 06 29.211   -33 35 49.52  .08365 .97633  78.5 22.6 1093  59
2019 11 14 01  21 05 39.374   -33 42 32.50  .08369 .97597  78.3 22.6 1100  59
2019 11 14 02  21 04 49.449   -33 49 13.87  .08373 .97562  78.1 22.6 1106  59
2019 11 14 03  21 03 59.438   -33 55 53.61  .08377 .97526  77.8 22.6 1112  59
2019 11 14 04  21 03 09.341   -34 02 31.70  .08381 .97491  77.6 22.6 1119  59
2019 11 14 05  21 02 19.160   -34 09 08.12  .08385 .97455  77.4 22.6 1125  59
2019 11 14 06  21 01 28.894   -34 15 42.88  .08390 .97420  77.1 22.6 1132  60
2019 11 14 07  21 00 38.546   -34 22 15.95  .08394 .97385  76.9 22.7 1138  60
2019 11 14 08  20 59 48.117   -34 28 47.31  .08399 .97349  76.7 22.7 1145  60
2019 11 14 09  20 58 57.606   -34 35 16.96  .08404 .97314  76.4 22.7 1151  60
2019 11 14 10  20 58 07.016   -34 41 44.88  .08408 .97278  76.2 22.7 1157  60
2019 11 14 11  20 57 16.347   -34 48 11.06  .08413 .97243  76.0 22.7 1164  60
2019 11 14 12  20 56 25.601   -34 54 35.49  .08418 .97207  75.7 22.7 1170  60
2019 11 14 13  20 55 34.778   -35 00 58.15  .08423 .97172  75.5 22.7 1176  60
2019 11 14 14  20 54 43.879   -35 07 19.03  .08429 .97137  75.3 22.7 1183  60
2019 11 14 15  20 53 52.906   -35 13 38.12  .08434 .97101  75.0 22.8 1189  61
2019 11 14 16  20 53 01.860   -35 19 55.40  .08439 .97066  74.8 22.8 1195  61
2019 11 14 17  20 52 10.742   -35 26 10.87  .08445 .97030  74.6 22.8 1201  61
2019 11 14 18  20 51 19.553   -35 32 24.50  .08451 .96995  74.4 22.8 1207  61
2019 11 14 19  20 50 28.293   -35 38 36.30  .08456 .96959  74.1 22.8 1214  61
2019 11 14 20  20 49 36.965   -35 44 46.25  .08462 .96924  73.9 22.8 1220  61
2019 11 14 21  20 48 45.570   -35 50 54.34  .08468 .96889  73.7 22.8 1226  61
2019 11 14 22  20 47 54.108   -35 57 00.55  .08474 .96853  73.4 22.8 1232  61
2019 11 14 23  20 47 02.580   -36 03 04.88  .08480 .96818  73.2 22.9 1238  62
2019 11 15 00  20 46 10.989   -36 09 07.31  .08486 .96782  73.0 22.9 1244  62
2019 11 15 01  20 45 19.334   -36 15 07.84  .08493 .96747  72.7 22.9 1250  62
2019 11 15 02  20 44 27.618   -36 21 06.45  .08499 .96712  72.5 22.9 1256  62
2019 11 15 03  20 43 35.841   -36 27 03.14  .08506 .96676  72.3 22.9 1262  62
2019 11 15 04  20 42 44.006   -36 32 57.89  .08512 .96641  72.1 22.9 1268  62
2019 11 15 05  20 41 52.112   -36 38 50.70  .08519 .96606  71.8 22.9 1274  62
2019 11 15 06  20 41 00.161   -36 44 41.55  .08526 .96570  71.6 22.9 1280  62
2019 11 15 07  20 40 08.155   -36 50 30.44  .08533 .96535  71.4 23.0 1286  63
2019 11 15 08  20 39 16.094   -36 56 17.36  .08540 .96500  71.2 23.0 1292  63
2019 11 15 09  20 38 23.981   -37 02 02.30  .08547 .96464  70.9 23.0 1298  63